Wind_Speed
9 16 15 17 21 24 20 20 20 17 16 16 14 13 12 12 13 12 12 11 11 12 11 11 9 11 11 11 11 8 9 11 9 9 9 10 13 14 12 11 8 8 8
11 13 17 13 18 20 19 19 18 16 14 14 14 12 13 13 14 12 11 10 10 11 9 12 10 10 9 11 9 7 8 12 9 11 4 14 14 12 13 12 9 10 9
9 13 15 16 16 16 17 17 17 15 13 13 13 13 12 12 13 12 10 10 10 8 9 11 11 10 7 8 8 5 6 11 11 11 14 9 17 17 14 13 10 10 9
9 11 14 15 16 15 15 16 16 15 13 12 11 11 12 11 11 10 8 8 8 7 10 9 9 9 9 8 7 6 7 10 11 12 14 5 17 14 16 13 10 8 8
10 11 13 15 14 15 14 14 15 15 13 11 11 10 10 10 9 8 8 7 7 6 9 8 9 8 9 9 8 7 9 11 15 17 15 18 19 18 17 14 10 9 8
10 13 13 14 14 14 14 13 13 13 12 10 10 10 9 9 8 8 10 10 9 7 8 8 9 9 9 9 7 6 7 7 11 16 14 16 18 17 15 15 11 9 7
10 12 13 14 13 13 13 12 11 11 11 10 9 9 8 7 7 7 9 9 8 7 7 7 7 8 7 9 8 5 3 9 10 11 11 13 14 15 15 14 13 10 7
11 11 12 13 13 12 11 11 11 11 11 10 8 8 7 6 5 6 6 6 6 5 5 7 6 5 5 8 10 4 4 12 8 10 13 12 13 10 10 12 13 10 8
12 11 11 12 12 11 11 11 11 11 10 9 8 7 7 7 7 7 5 4 5 3 3 3 5 3 4 7 8 7 7 8 5 4 12 13 13 10 10 14 8 7 7
14 12 11 11 10 10 9 10 10 9 8 6 6 6 5 4 5 4 3 2 4 4 3 3 3 3 4 5 7 6 7 10 9 11 11 14 16 19 11 10 5 5 8
13 13 11 10 9 8 8 8 8 7 6 4 4 2 1 6 1 0 1 4 6 6 5 4 4 5 5 5 5 5 8 7 8 8 8 10 13 17 13 10 5 6 4
13 12 11 11 9 8 8 7 7 6 4 3 2 2 1 2 5 6 4 7 9 10 8 6 6 5 6 7 8 7 9 10 9 10 9 12 11 13 12 9 4 5 2
12 12 10 10 9 8 8 7 7 5 4 3 3 3 3 5 5 6 7 10 11 11 11 10 9 8 7 7 8 8 8 9 10 10 10 8 9 10 7 6 4 2 3
10 11 10 9 8 7 6 6 6 5 3 3 1 2 5 5 7 8 7 8 10 11 10 10 10 10 9 5 7 10 10 9 10 8 13 13 13 6 4 11 5 8 9
8 9 8 7 7 6 5 6 5 3 2 3 1 1 2 3 4 5 7 11 12 12 11 12 13 13 14 10 10 10 11 9 10 9 11 10 13 7 10 6 5 11 8
8 7 6 5 5 5 5 4 1 1 1 0 1 1 2 3 5 8 13 13 17 17 18 17 15 13 13 13 13 11 10 8 9 8 14 15 14 15 12 7 10 7 7
9 7 5 4 5 5 3 3 1 1 1 1 1 1 4 5 6 9 9 10 13 14 13 13 12 13 13 12 10 5 9 9 9 8 10 14 13 11 12 11 12 12 9
8 7 5 4 4 4 3 1 0 0 1 2 3 4 5 5 7 8 8 12 14 11 8 10 7 11 16 13 9 7 6 6 8 7 10 11 11 6 5 5 5 8 8
6 5 6 6 4 3 2 1 1 1 3 5 5 4 2 3 6 7 9 12 15 16 9 6 9 8 3 6 7 6 9 8 8 8 9 6 10 12 13 12 10 9 10
5 4 4 5 4 3 3 2 1 4 4 5 4 1 0 2 6 8 8 11 12 15 12 8 2 3 1 1 4 6 7 7 8 4 4 5 7 10 11 12 12 11 8
4 4 4 3 3 4 3 1 3 5 4 4 2 3 2 3 3 5 7 9 13 14 15 15 10 8 6 5 7 8 6 3 5 6 3 4 7 9 11 13 14 12 11
5 6 5 5 3 1 2 2 3 4 5 5 6 6 5 4 4 4 5 7 11 12 13 14 14 10 9 7 7 7 7 8 1 5 3 2 6 8 11 14 14 14 14
2 1 1 2 2 1 2 2 4 4 5 6 7 8 6 2 6 5 6 7 9 10 11 11 9 8 6 6 7 8 7 7 7 3 5 5 6 8 10 12 13 14 12
2 2 1 1 1 0 3 5 5 5 5 7 7 8 13 9 6 6 5 4 5 7 8 8 8 8 8 7 7 8 8 9 9 8 8 7 8 12 12 11 13 12 11
2 2 2 3 4 3 3 5 6 4 5 5 2 3 6 7 5 6 5 5 6 7 7 6 6 6 5 6 6 7 9 10 12 13 13 13 14 13 17 14 12 12 12
3 1 2 4 4 3 3 4 4 3 4 5 5 4 4 6 6 6 6 8 10 10 8 8 8 8 8 8 9 10 12 12 11 14 16 16 16 11 18 17 18 18 18
Wind_Direction
107 121 120 129 135 137 137 135 133 128 130 126 118 115 116 105 104 105 96 94 86 79 73 75 79 78 76 72 61 71 61 48 44 49 49 45 45 47 47 51 58 63 69
109 111 124 135 136 133 138 140 133 133 129 124 120 122 112 104 99 100 95 91 82 81 79 77 72 76 79 74 69 52 34 21 32 20 44 61 40 55 48 39 40 58 59
121 135 140 137 135 138 139 136 136 137 135 132 129 121 111 105 102 103 97 90 83 80 84 79 76 71 78 76 70 47 19 11 27 21 45 35 32 27 36 33 24 49 46
142 151 145 140 142 139 142 142 139 143 142 138 128 120 116 111 108 102 97 92 92 81 77 82 84 82 77 78 69 50 25 17 22 26 17 49 22 19 28 21 20 39 43
144 151 152 150 146 147 145 143 142 143 142 136 122 115 112 111 103 93 83 80 111 92 80 75 75 72 66 62 56 38 18 20 7 29 22 9 3 7 7 9 16 36 48
140 144 158 152 151 151 143 142 142 143 141 135 124 117 116 109 99 94 77 81 111 96 86 75 69 71 67 56 48 35 26 17 20 25 6 8 8 6 360 356 358 37 47
123 136 146 147 148 141 137 136 136 138 136 133 124 123 120 108 99 85 80 82 86 76 69 70 69 70 67 50 41 39 14 41 36 55 15 15 12 353 360 354 359 21 24
111 126 135 141 137 135 133 132 133 141 139 136 132 133 130 120 110 90 81 76 65 59 59 69 68 71 64 55 53 46 13 43 14 22 6 16 17 9 0 11 11 12 18
102 112 127 134 136 135 133 133 137 136 139 138 143 155 162 154 141 122 108 59 42 26 19 41 70 70 64 49 52 46 14 54 37 312 26 12 3 7 354 354 2 16 21
86 98 112 124 131 134 131 128 126 128 134 141 160 181 179 157 131 139 118 33 358 1 325 329 353 347 11 25 31 18 2 26 10 3 26 7 5 32 8 344 21 19 29
94 92 99 103 113 125 128 133 129 127 126 137 191 212 25 3 245 10 11 329 332 337 328 311 323 328 347 7 7 354 342 356 11 2 18 355 0 357 27 27 354 17 342
98 99 101 105 109 114 115 118 114 116 127 152 238 276 344 248 301 305 325 315 314 316 318 319 304 314 326 324 341 338 339 339 350 336 348 355 6 17 25 51 51 16 13
112 109 115 107 111 114 115 119 121 131 145 166 236 282 290 300 289 297 328 311 307 310 308 312 300 298 297 309 328 330 338 344 338 338 310 287 327 3 28 32 14 356 65
121 117 110 107 110 119 121 125 127 138 162 171 177 312 314 327 348 331 310 302 301 298 292 294 297 283 294 262 310 318 331 325 327 339 314 335 314 268 353 357 329 323 323
125 125 120 120 126 133 132 133 124 100 141 144 100 326 335 354 333 317 307 302 293 297 302 298 283 284 282 301 317 305 311 318 315 331 326 339 317 320 332 317 327 327 329
134 133 127 124 128 141 153 161 177 157 189 57 326 331 321 349 335 334 331 315 288 287 287 278 285 285 283 305 302 292 288 303 303 325 340 335 321 319 302 321 315 333 354
138 137 133 131 125 126 148 165 174 347 292 352 22 355 333 337 335 350 333 341 333 303 284 290 268 275 279 303 297 321 281 280 301 327 334 333 323 310 302 311 298 311 316
150 149 144 143 141 137 125 105 57 323 317 338 331 327 319 331 347 354 345 347 0 348 289 300 288 298 263 280 286 290 305 297 294 299 330 341 342 324 359 19 1 6 14
166 168 159 160 161 156 134 123 162 305 346 341 330 317 341 358 357 10 2 356 3 13 27 288 276 267 235 279 271 306 319 292 293 315 347 27 40 32 29 46 30 38 26
167 155 143 157 162 151 122 131 323 326 340 359 355 328 323 33 19 20 16 20 22 22 19 23 32 79 147 109 327 306 321 289 265 335 46 42 9 16 18 11 8 9 359
115 137 163 159 145 123 113 5 322 328 340 340 288 269 338 16 13 39 24 28 33 34 45 49 62 64 43 36 36 37 30 46 113 103 63 24 14 6 1 359 350 345 338
131 144 139 136 140 132 311 321 320 331 331 298 294 277 243 118 26 37 50 26 29 29 32 38 43 50 51 40 19 24 19 359 59 90 46 11 353 350 359 344 338 335 336
112 116 177 183 192 283 276 274 289 302 299 291 290 270 262 215 56 5 38 26 21 28 34 31 21 28 31 14 7 359 353 345 348 344 322 315 329 326 330 328 332 333 327
51 98 229 220 176 236 288 281 287 300 286 289 338 323 3 35 26 353 17 9 11 17 29 31 24 22 11 4 5 352 341 338 330 323 303 293 286 302 310 317 320 333 337
62 119 178 226 236 229 262 288 291 272 270 281 295 331 6 11 342 351 341 335 352 1 1 10 9 1 348 340 344 339 339 331 324 318 311 308 309 305 301 306 309 323 328
274 286 307 288 260 221 224 256 264 259 278 312 341 347 10 340 345 345 340 337 337 337 337 330 337 330 323 326 323 320 314 310 304 299 302 306 305 311 299 304 307 310 305
Height
5881 5882 5884 5884 5884 5884 5887 5890 5891 5892 5893 5893 5895 5896 5898 5899 5898 5898 5899 5899 5900 5900 5900 5900 5900 5899 5900 5899 5898 5897 5897 5897 5894 5893 5893 5892 5891 5890 5890 5891 5890 5889 5889
5881 5882 5884 5887 5887 5887 5889 5891 5891 5893 5894 5895 5896 5898 5898 5899 5899 5900 5901 5901 5902 5902 5904 5901 5902 5901 5902 5902 5901 5897 5898 5898 5897 5897 5894 5892 5893 5893 5891 5892 5892 5891 5890
5883 5884 5885 5885 5889 5890 5891 5892 5892 5895 5896 5897 5898 5899 5900 5901 5902 5903 5904 5904 5904 5905 5905 5903 5904 5903 5903 5904 5904 5901 5901 5899 5901 5900 5897 5894 5894 5894 5893 5894 5895 5892 5893
5885 5886 5886 5887 5889 5891 5893 5894 5894 5895 5897 5899 5899 5900 5901 5903 5905 5905 5906 5906 5906 5908 5906 5906 5906 5906 5905 5906 5905 5903 5903 5903 5903 5904 5901 5893 5893 5896 5895 5897 5897 5895 5894
5885 5886 5887 5889 5890 5892 5893 5894 5896 5897 5899 5901 5902 5903 5903 5906 5907 5908 5908 5908 5908 5909 5909 5909 5908 5908 5908 5908 5908 5906 5905 5904 5898 5901 5902 5900 5898 5898 5899 5899 5899 5898 5897
5885 5887 5889 5890 5891 5894 5894 5897 5898 5899 5901 5903 5904 5906 5907 5908 5909 5910 5910 5909 5911 5911 5912 5911 5910 5911 5910 5910 5909 5908 5906 5904 5903 5900 5900 5903 5901 5901 5902 5902 5902 5899 5899
5886 5888 5890 5891 5894 5895 5897 5899 5900 5902 5904 5906 5907 5909 5910 5911 5912 5913 5912 5912 5913 5913 5913 5913 5913 5913 5913 5912 5911 5909 5906 5913 5910 5907 5903 5906 5905 5904 5904 5905 5903 5900 5901
5887 5889 5891 5893 5895 5897 5899 5901 5903 5904 5906 5909 5910 5911 5912 5913 5914 5914 5915 5915 5915 5915 5915 5915 5914 5914 5914 5914 5913 5910 5909 5914 5908 5905 5910 5909 5907 5906 5907 5906 5903 5901 5902
5890 5891 5893 5895 5897 5899 5901 5903 5905 5907 5909 5911 5911 5910 5910 5911 5911 5913 5916 5917 5918 5917 5916 5915 5915 5915 5915 5915 5915 5912 5910 5915 5911 5907 5912 5912 5910 5908 5908 5905 5902 5902 5902
5892 5894 5896 5898 5900 5902 5904 5905 5907 5909 5910 5911 5910 5909 5912 5914 5913 5914 5915 5918 5919 5918 5917 5916 5915 5916 5916 5916 5916 5914 5910 5912 5912 5911 5910 5910 5908 5908 5908 5905 5903 5903 5902
5895 5897 5898 5900 5902 5904 5905 5907 5908 5911 5912 5912 5910 5911 5916 5917 5916 5915 5914 5916 5918 5918 5918 5917 5917 5917 5917 5917 5916 5914 5912 5914 5915 5912 5910 5909 5909 5909 5907 5906 5904 5903 5903
5898 5899 5901 5902 5904 5906 5907 5908 5910 5912 5913 5913 5911 5913 5916 5917 5918 5916 5914 5916 5917 5917 5917 5916 5916 5915 5916 5916 5917 5915 5914 5912 5913 5912 5912 5912 5913 5911 5908 5906 5906 5905 5904
5900 5901 5904 5904 5906 5908 5909 5910 5911 5913 5914 5915 5914 5914 5916 5916 5917 5917 5914 5916 5917 5916 5916 5916 5914 5914 5914 5914 5915 5915 5914 5913 5912 5912 5911 5908 5909 5910 5909 5907 5906 5907 5907
5902 5903 5905 5906 5907 5909 5910 5911 5912 5914 5915 5916 5916 5914 5913 5915 5913 5914 5917 5917 5917 5916 5916 5915 5913 5913 5913 5913 5913 5914 5914 5913 5911 5911 5908 5897 5906 5908 5908 5908 5908 5907 5907
5904 5905 5907 5908 5909 5910 5911 5913 5914 5914 5915 5916 5917 5917 5918 5918 5919 5919 5919 5917 5916 5915 5915 5914 5913 5914 5910 5913 5912 5911 5911 5911 5910 5910 5908 5907 5907 5908 5903 5905 5906 5907 5905
5904 5906 5907 5909 5909 5911 5913 5914 5914 5915 5916 5917 5918 5919 5920 5920 5920 5919 5918 5917 5914 5913 5912 5913 5911 5912 5912 5910 5910 5910 5910 5910 5909 5910 5907 5904 5903 5904 5905 5904 5904 5906 5905
5905 5907 5909 5909 5910 5912 5913 5914 5915 5916 5917 5918 5919 5920 5921 5920 5919 5918 5916 5914 5911 5909 5909 5909 5908 5908 5909 5909 5909 5909 5908 5907 5907 5908 5908 5906 5904 5903 5903 5902 5903 5902 5902
5906 5907 5908 5910 5911 5912 5914 5915 5917 5918 5919 5920 5920 5920 5921 5921 5920 5918 5916 5913 5910 5907 5905 5907 5907 5906 5907 5909 5909 5908 5907 5906 5905 5906 5907 5905 5904 5902 5900 5901 5902 5900 5900
5907 5908 5909 5910 5912 5913 5915 5916 5918 5919 5919 5920 5920 5919 5919 5920 5919 5919 5916 5914 5910 5903 5902 5904 5905 5905 5906 5907 5909 5908 5907 5906 5905 5905 5904 5905 5905 5904 5902 5899 5900 5900 5900
5909 5910 5911 5911 5912 5914 5916 5917 5919 5919 5919 5919 5920 5919 5918 5918 5917 5918 5916 5915 5911 5909 5905 5903 5903 5905 5906 5907 5907 5906 5904 5904 5904 5905 5905 5905 5904 5903 5903 5903 5902 5902 5901
5910 5911 5912 5913 5914 5915 5917 5918 5918 5919 5920 5920 5918 5919 5919 5920 5918 5916 5917 5916 5914 5911 5908 5907 5906 5907 5907 5907 5906 5906 5905 5903 5903 5905 5906 5906 5906 5905 5905 5905 5903 5902 5901
5911 5912 5913 5914 5915 5916 5917 5918 5919 5919 5920 5917 5917 5916 5916 5914 5919 5918 5916 5917 5915 5914 5912 5909 5909 5909 5908 5908 5908 5907 5906 5903 5903 5903 5904 5906 5905 5904 5903 5902 5901 5900 5899
5912 5913 5914 5915 5915 5916 5917 5918 5919 5920 5919 5916 5917 5914 5905 5916 5914 5919 5915 5916 5916 5915 5914 5913 5913 5912 5910 5910 5909 5909 5907 5906 5905 5905 5904 5903 5904 5903 5902 5900 5898 5897 5897
5911 5913 5914 5914 5914 5915 5916 5917 5918 5919 5918 5916 5917 5917 5911 5912 5915 5918 5914 5917 5916 5915 5914 5914 5914 5913 5911 5910 5909 5908 5906 5906 5905 5904 5903 5902 5902 5901 5899 5899 5897 5895 5893
5912 5913 5914 5914 5914 5914 5915 5916 5917 5917 5917 5916 5917 5917 5916 5915 5918 5915 5915 5918 5917 5916 5915 5914 5913 5913 5912 5911 5909 5908 5907 5906 5904 5903 5902 5902 5900 5900 5896 5896 5895 5894 5892
5912 5912 5913 5913 5913 5913 5914 5915 5915 5917 5917 5916 5916 5916 5917 5915 5915 5915 5918 5919 5918 5916 5915 5913 5912 5911 5911 5910 5908 5907 5905 5903 5903 5901 5898 5896 5895 5897 5894 5893 5893 5892 5890